Location: Unspecified
(47.4992°N, 121.7766°W)
Time: 18:38:38
(UTC-07:00)

Cosmos 2058 - Visible Passes

Search period start: 29 March 2023 00:00
Search period end: 08 April 2023 00:00
Orbit: 555 x 577 km, 82.5° (Epoch: 29 March)

Date Brightness Start Highest point End Pass type
(mag) Time Alt. Az. Time Alt. Az. Time Alt. Az.
01 Apr 6.2 01:05:00 10° NNW 01:05:01 10° NNW 01:05:01 10° NNW visible
01 Apr 5.9 23:29:50 10° NNE 23:29:51 10° NNE 23:29:51 10° NNE visible
02 Apr 6.2 01:05:52 10° NNW 01:05:54 10° NNW 01:05:54 10° NNW visible
02 Apr 5.8 23:30:23 10° NNE 23:30:45 12° NNE 23:30:45 12° NNE visible
03 Apr 6.1 01:06:45 10° NNW 01:06:48 10° NNW 01:06:48 10° NNW visible
03 Apr 5.7 23:30:59 10° NNE 23:31:38 13° NNE 23:31:38 13° NNE visible
04 Apr 6.1 01:07:41 10° NNW 01:07:42 10° NNW 01:07:42 10° NNW visible
04 Apr 5.5 23:31:36 10° N 23:32:32 15° NNE 23:32:32 15° NNE visible
05 Apr 5.4 23:32:15 10° N 23:33:26 18° NNE 23:33:26 18° NNE visible
06 Apr 5.3 23:32:55 10° N 23:34:20 20° N 23:34:20 20° N visible
07 Apr 5.1 23:33:37 10° N 23:35:14 22° N 23:35:14 22° N visible
